Starlink 1497

operational
NORAD ID: 45781 Int'l Des: 2020-038 Owner: SPXS Country: US Constellation: starlink
LEOCIRCULAR

Über Starlink 1497

Beschreibung wird geladen...

Live-Position

3D-Globus wird geladen...

Nächste Überflüge

Höhenverlauf

Altitude vs Time

uPlot chart will show altitude changes over time

Zweizeiliger Elementsatz

1 45781U 20038BD 26035.14590326 .00920624 45476-3 12849-2 0 9992
2 45781 53.0217 247.0184 0006157 218.0843 141.9754 16.05338167313105
Epoch: 4. Feb. 2026 • Age: 8 hours

Aktueller Status

Höhe 260.9 km
Geschwindigkeit 7.76 km/s
Subsatellitenpunkt 37.37°N, 83.06°E
Startdatum 13. Juni 2020
Alter 5.6 years
Typ internet

Technische Details

Klassifizierung Payload
Masse 260.00 kg
Trockenmasse 248.00 kg
Gesamtmasse 260.00 kg
Länge 0.20 m
Durchmesser 2.80 m
Spannweite 9.00 m
Form Box + pan
Hersteller SPXS
Bus-Typ Starlink
Phasenstatus In Orbit
Besitzer/Staat SPXS/US

Große Konstellationen

Loading constellations...